Regional Weather Roundup
Issued by NWS Goodland, KS

Home | Current Version | Previous Version | Graphics & Text | Print | Product List | Glossary On
Versions: 1 2 3 4 5 6 7 8 9 10 11 12 13 14 15 16 17 18 19 20 21 22 23 24 25 26 27 28 29 30 31 32 33 34 35 36 37 38 39 40 41 42 43 44 45 46 47 48 49 50
000
ASUS43 KGLD 192259
RWRGLD

GOODLAND FORECAST AREA HOURLY WEATHER ROUNDUP
NATIONAL WEATHER SERVICE GOODLAND KS
500 PM MDT FRI SEP 19 2014

...OFFICIAL OBSERVATIONS...

CITY           SKY/WX    TMP DP  RH WIND       PRES   REMARKS
GOODLAND KS    SUNNY     87  57  35 S18G25    29.88S
HILL CITY KS   SUNNY     90  57  32 S15G23    29.84F
IMPERIAL NEB   SUNNY     91  51  25 S13       29.83R
MCCOOK NEB     MOSUNNY   91  58  32 S18G24    29.82R
AKRON CO       SUNNY     88  43  20 NE6       29.91S
BURLINGTON CO  SUNNY     88  50  27 S14G22    29.90S
LIMON CO       SUNNY     87  36  16 NE8       29.97S
$$

...UNOFFICIAL OBSERVATIONS...

CITY           SKY/WX    TMP DP  RH WIND       PRES   REMARKS
COLBY KS       MOSUNNY   88  63  42 S20G26    29.87R
GOVE KS          N/A     87  32  14 MISG        N/A
NORTON KS      SUNNY     88  52  29 S16G23    29.82S
SHARON SPRINGS   N/A     87  62  43 S22G32      N/A
WAKEENEY KS      N/A     88  51  27 MISG        N/A
TRENTON NEB      N/A     91  32  12 S16         N/A
KIT CARSON CO    N/A     88  51  27 CALM        N/A
YUMA CO          N/A     91  42  17 CALM        N/A
$$



USA.gov is the U.S. government's official web portal to all federal, state and local government web resources and services.